Powrót do katalogu

FENGYUN 1C DEB

AktywnyLEO
NORAD 41006·DEBRIS·🇨🇳 China

Wystrzelony May 10, 1999 z Taiyuan Satellite Launch Center

Loading…

Następne Przeloty (najbliższe 24 godziny)

TLE

Starzejące sięSource: Space-Track

Epoka: Sep 9, 2026, 16:33 UTC

1 41006U 99025EXL 26252.68989380  .00002467  00000-0  19006-2 0  9991
2 41006 102.3629 214.4636 0182642  85.0485 277.1483 13.86917267612433

Śledź FENGYUN 1C DEB w czasie rzeczywistym z AllMySat

Download on the App Store